sat.trackr.live / text

‹ back to catalog

GEESAT-1 05

NORAD 52789 · 2022-058E

PAYLOAD ACTIVE UNKNOWN

§ Identity

Operator
Country
PRC
Launch date
2022-06-02
Launch site
XICLF
Launch vehicle
Mass (kg)
RCS (m²)

External: N2YO · Heavens-Above · Gunter

§ Orbital elements

Epoch: 2026-05-24T21:47:14.506656Z

Period
95.97 min
Inclination
49.9869°
Eccentricity
0.0001349
Mean motion
15.00445042 rev/d
Perigee alt
564.6 km
Apogee alt
566.5 km
Semi-major
6,943.7 km
B*
3.2246e-4
RAAN
291.4775°
Arg perigee
281.1263°
Mean anomaly
78.9530°
Rev number
21,671

§ Raw data

GEESAT-1 051 52789U 22058E   26144.90780679  .00003845  00000+0  32246-3 0  99902 52789  49.9869 291.4775 0001349 281.1263  78.9530 15.00445042216717

JSON: /api/v1/satellites/52789 · /tle

For live sub-satellite position, see the globe view (requires WebGL).

§ Visibility from observer

Set your observer location to see the next 7 days of passes ≥ 10°. The values pass through the URL so the page stays shareable.

No JS? Fill the form by hand. The geolocation button needs JavaScript.